User: anonymous
Location: Unspecified
(0.0000°N, 0.0000°E)
Time: 11:45:59
(UTC+00:00)
Language:

USA 176 - Orbit

View from above orbital plane
View from above orbital plane
View from above satellite
View from above satellite

Ground track
Ground track

The orbit data is extracted from the following two-line orbital elements,

1 28158U 04004A   14253.99544112 0.00000000  00000-0  00000-0 0    05
2 28158   6.1034  53.9227 0002248  20.7456 339.2884  1.00270000    05
Epoch (UTC): 10 September 2014 23:53:26
Eccentricity: 0.0002248
inclination: 6.1034°
perigee height: 35777 km
apogee height: 35796 km
right ascension of ascending node: 53.9227°
argument of perigee: 20.7456°
revolutions per day: 1.00270000
mean anomaly at epoch: 339.2884°
orbit number at epoch: 0

The dashed part of the orbit path shows where the satellite is in the earth's shadow,  

DLR